Wind_Speed
32 31 28 26 26 24 22 22 21 20 18 16 17 19 16 13 12 12 14 11 12 15 6 5 5 6 6 5 5 3 9 13 18 15 14 8 5 4 2 6 2 4 4 3 16
34 32 30 30 28 27 23 22 23 19 19 17 16 17 19 14 15 21 13 15 14 11 9 8 8 6 8 8 4 8 11 18 15 14 12 11 10 7 6 9 8 8 5 5 15
30 34 32 30 30 28 25 24 22 21 19 17 16 16 13 8 12 13 23 20 15 7 9 8 6 8 11 8 10 8 16 15 16 13 14 16 14 6 7 10 9 11 12 11 14
28 30 34 32 31 29 27 25 23 22 19 18 16 17 14 11 10 4 22 25 20 11 11 10 8 11 10 16 14 11 14 17 14 11 11 16 18 22 14 16 3 5 1 13 14
26 28 30 34 32 31 29 27 25 23 20 18 16 18 14 11 19 3 11 20 17 13 15 13 14 13 16 12 17 13 18 13 14 11 11 10 13 16 18 16 14 6 6 11 14
26 26 28 32 34 31 31 28 24 23 22 19 16 18 17 18 15 11 9 15 17 19 9 8 7 3 6 8 11 6 9 18 14 14 13 12 18 15 10 13 16 11 12 12 15
28 27 27 28 33 33 30 28 26 23 23 20 17 15 19 17 9 17 13 16 20 18 16 10 6 3 5 1 5 8 12 13 17 15 12 10 21 23 16 18 15 18 15 13 14
26 28 26 28 31 34 31 29 27 25 21 20 16 10 9 13 12 13 17 15 13 17 19 12 10 1 2 2 2 6 10 16 18 17 15 9 24 16 17 22 24 22 19 15 15
29 28 28 27 30 34 33 31 26 22 18 17 12 11 5 10 18 17 19 20 11 8 6 12 7 4 5 8 4 8 11 18 20 18 13 16 19 16 19 19 18 20 22 22 21
31 31 29 28 28 33 34 30 22 17 15 13 11 9 8 14 13 22 15 18 8 7 2 6 5 5 7 8 11 7 10 16 17 13 14 20 23 20 16 15 16 18 20 21 23
32 32 32 33 28 32 34 23 9 6 20 9 10 11 4 11 16 18 21 19 16 7 12 8 6 10 11 15 19 15 12 20 19 16 3 19 22 23 21 22 22 20 20 19 20
34 35 33 32 32 30 36 15 33 6 11 9 8 15 4 16 10 17 20 16 13 12 17 8 14 27 17 12 8 18 15 17 18 14 10 19 24 23 23 21 23 21 23 23 22
35 36 34 33 32 30 28 41 36 28 6 6 7 16 8 13 15 19 23 21 18 21 14 21 26 18 21 19 15 20 14 13 17 11 17 17 25 25 29 26 25 23 21 23 22
34 36 36 33 26 29 27 30 41 29 6 10 8 10 7 7 7 13 24 19 11 17 20 16 22 17 20 25 21 21 19 18 16 11 11 10 12 20 24 21 22 21 20 22 22
33 36 36 37 24 24 11 28 47 17 9 17 9 16 16 15 13 8 18 21 24 19 10 16 15 18 20 19 14 22 14 11 10 14 10 16 7 16 19 24 22 20 19 20 20
31 35 35 34 33 24 26 36 14 6 8 12 15 19 21 20 10 9 11 12 11 18 20 21 7 15 26 23 18 4 5 7 10 12 11 23 20 14 17 24 23 21 18 18 15
27 34 37 34 28 33 32 17 8 7 13 9 15 24 27 15 16 13 15 19 13 14 22 25 24 17 9 15 6 8 7 4 4 5 7 17 17 23 15 17 19 17 11 13 13
28 36 40 36 34 36 30 15 15 10 10 14 18 23 21 22 18 18 17 17 22 20 10 18 18 26 21 20 22 15 10 4 8 4 8 11 9 13 18 17 22 20 13 14 10
27 35 33 35 34 35 14 18 10 19 12 21 22 21 15 22 13 18 22 22 21 24 15 14 20 11 22 26 21 11 11 21 11 18 6 7 17 16 15 14 11 13 13 15 14
30 24 26 33 37 26 6 17 5 16 17 25 14 18 18 25 21 21 21 18 22 25 20 14 11 18 14 19 22 26 15 8 7 6 8 12 21 14 9 14 12 14 15 13 12
19 8 19 33 32 12 11 6 4 19 21 19 17 17 17 22 22 21 17 9 24 21 22 18 13 6 11 16 23 18 21 20 12 12 14 15 15 16 19 19 20 17 14 7 6
6 4 20 37 12 5 15 9 10 24 17 5 12 12 20 25 21 22 19 19 10 20 23 22 7 12 17 12 14 19 23 23 5 7 9 18 21 13 4 6 7 10 1 4 4
9 3 27 30 10 8 6 11 18 27 20 12 7 9 18 18 12 18 17 14 11 17 14 15 9 9 6 10 12 9 19 20 18 19 19 7 13 16 19 19 13 7 6 6 4
4 5 5 7 2 15 10 12 18 15 7 6 14 19 21 19 6 18 15 13 14 11 7 8 15 14 15 14 6 6 16 21 21 15 12 17 25 32 25 18 11 13 7 7 5
3 3 2 9 5 15 8 11 22 11 6 12 9 20 21 14 9 10 18 13 13 12 14 8 5 15 23 20 21 20 15 11 11 19 18 25 27 36 27 23 21 19 18 18 17
5 4 4 7 17 16 12 14 19 8 7 10 16 22 13 15 10 16 16 15 10 16 13 10 4 6 5 14 16 20 23 23 23 22 18 23 27 34 29 24 27 22 20 20 21
2 7 7 16 16 9 10 12 14 13 8 11 22 16 13 14 8 12 8 5 5 14 16 9 6 2 5 8 13 10 23 23 23 23 22 22 28 30 29 20 18 20 22 22 22
Wind_Direction
229 230 232 232 234 233 233 236 240 238 238 236 231 235 237 236 229 214 234 239 224 252 316 272 252 256 262 245 245 277 253 246 244 232 233 138 218 175 32 255 193 188 302 67 140
232 231 232 230 232 232 230 234 235 238 233 235 228 232 239 234 226 231 229 232 241 245 250 254 242 245 237 248 236 234 239 250 257 250 252 217 230 198 197 217 224 209 183 166 149
237 233 232 231 231 230 229 229 235 232 230 228 227 224 226 219 265 251 232 231 229 234 240 238 250 239 236 237 225 239 242 255 259 271 278 269 217 222 236 246 244 246 193 181 169
238 235 231 230 230 228 230 228 230 228 229 222 222 220 205 191 230 15 215 222 225 216 220 219 216 224 231 227 232 253 247 256 269 287 290 269 266 258 239 254 304 288 49 181 195
235 236 233 230 229 228 228 227 229 232 223 219 215 213 194 218 228 74 199 212 192 190 213 218 219 224 230 244 240 238 261 251 265 265 266 271 263 264 265 258 246 236 170 207 213
230 233 232 231 228 229 227 226 226 229 220 216 210 206 210 231 222 225 170 191 198 197 182 202 224 220 256 247 255 324 287 270 247 264 252 265 262 257 258 256 252 235 220 214 219
230 230 230 231 229 226 226 225 225 224 218 214 210 206 219 226 212 211 192 202 211 216 205 194 146 187 130 343 326 294 275 263 248 247 262 273 262 250 256 262 258 253 246 233 222
229 230 230 228 227 223 221 221 223 217 216 213 206 205 228 221 227 207 202 200 202 219 209 189 172 121 183 95 258 302 288 256 243 237 236 237 260 259 242 242 252 247 251 234 227
226 230 228 223 225 221 218 218 216 213 212 204 198 210 222 209 209 207 205 197 184 213 172 156 138 176 159 215 221 220 247 246 265 270 229 216 268 260 249 253 255 254 248 248 235
225 222 228 225 222 218 216 213 205 197 190 180 219 198 211 215 202 207 207 213 172 130 131 190 192 201 198 211 208 203 226 242 248 244 219 248 252 261 251 239 257 257 256 249 246
220 219 223 226 222 215 204 182 157 186 178 184 188 209 16 208 185 190 196 187 190 181 206 211 219 231 202 217 239 230 254 257 257 243 293 263 259 260 253 253 252 251 255 255 253
220 221 217 219 219 214 200 191 191 154 175 194 211 207 318 171 180 201 191 191 199 207 207 203 229 226 238 229 230 241 248 259 267 259 208 253 264 267 258 254 253 251 249 248 249
215 217 215 213 214 213 216 199 184 156 151 177 225 187 161 192 211 196 190 203 204 214 199 222 233 234 234 227 234 236 233 243 246 245 242 271 274 261 256 253 251 246 243 250 245
215 212 213 208 209 207 217 199 180 185 163 159 203 175 163 186 214 207 201 199 222 219 215 223 240 247 222 230 226 245 235 232 241 261 244 204 276 268 257 251 231 235 237 242 243
215 209 207 202 199 199 198 183 175 208 206 154 161 165 176 188 124 197 197 211 220 212 207 224 224 224 237 235 240 250 248 222 243 242 259 239 261 261 255 256 250 240 229 238 242
210 205 204 203 205 200 195 177 186 192 192 156 151 175 168 200 194 135 176 218 231 228 228 243 234 238 231 236 230 226 222 238 250 247 251 238 225 257 241 252 253 247 236 243 240
214 209 203 198 203 195 188 175 196 225 145 144 167 169 176 173 175 172 181 190 188 199 222 226 233 231 258 223 159 196 157 220 215 212 235 232 227 244 270 261 267 264 240 242 242
233 212 208 203 198 193 189 175 206 131 166 168 160 164 179 161 190 187 177 196 214 209 214 221 232 223 216 224 214 206 208 231 215 199 249 209 239 232 234 252 253 259 256 258 250
213 197 198 199 190 183 181 195 181 154 156 155 142 169 183 181 172 183 198 205 206 208 211 200 232 231 211 226 230 233 213 235 267 276 262 227 259 257 263 262 250 253 251 251 254
183 185 197 192 185 181 216 188 121 167 156 148 147 178 177 180 185 191 190 210 211 213 219 239 264 226 227 220 232 236 238 220 200 214 220 228 250 259 262 258 258 244 249 248 255
177 178 194 189 180 185 196 174 126 167 155 166 151 165 180 178 194 190 192 164 194 204 218 229 253 244 233 198 222 218 233 236 272 240 257 264 256 264 271 274 266 251 239 264 262
151 174 176 174 185 170 188 159 182 168 153 145 156 158 170 175 191 187 205 205 210 204 199 212 243 247 241 244 251 252 226 224 227 212 249 251 262 270 293 320 339 330 34 221 266
138 119 164 170 181 162 128 154 168 163 157 146 149 163 164 167 189 199 204 205 184 204 200 199 232 237 255 245 224 235 244 233 241 257 255 256 252 251 254 263 274 279 287 283 324
127 190 156 162 76 151 147 155 151 158 99 115 137 143 150 168 188 192 197 196 190 218 105 209 224 223 236 237 233 202 241 243 247 245 249 242 268 272 269 273 267 297 268 254 259
127 212 130 160 153 147 141 149 143 143 123 139 139 156 148 156 156 179 192 175 210 201 186 186 233 249 246 253 257 268 249 247 255 255 253 260 253 269 263 268 286 287 286 297 295
156 144 127 114 139 139 143 168 155 121 150 139 150 155 145 154 174 170 172 186 181 191 201 178 217 192 269 264 264 270 268 261 254 239 249 260 271 268 276 283 285 295 300 295 292
110 146 129 144 145 138 158 151 148 121 30 142 134 132 125 153 144 145 136 98 147 182 196 206 227 153 245 236 239 255 248 257 260 255 251 245 252 266 272 265 269 278 273 271 275
Height
777 780 782 784 787 790 792 795 798 801 804 806 808 812 815 816 818 819 818 818 818 819 819 818 817 816 816 813 814 811 819 816 809 809 802 802 810 808 810 810 812 810 811 814 815
771 775 778 781 784 786 789 792 794 798 801 804 806 810 812 815 817 814 816 815 817 819 821 818 814 814 813 813 813 813 816 810 797 796 798 797 806 804 810 810 807 808 813 817 817
765 769 773 776 780 783 786 789 792 795 799 803 806 808 811 815 817 805 810 814 817 819 821 819 817 816 814 811 812 810 814 801 797 795 794 797 803 804 806 807 800 800 799 812 816
760 763 767 772 776 780 783 787 789 793 797 801 804 807 811 817 819 800 803 808 814 818 820 818 815 816 816 814 809 819 808 803 799 798 807 806 798 798 800 800 798 798 795 807 812
755 759 762 767 772 776 780 784 788 791 794 798 802 806 812 812 801 804 805 808 812 817 817 817 814 813 813 810 809 816 809 801 803 804 809 806 808 807 801 796 796 799 799 803 808
750 754 758 763 767 772 777 781 785 788 793 797 800 803 806 803 800 805 807 809 811 814 816 818 815 814 811 813 814 809 810 806 804 804 805 812 804 803 800 797 793 797 797 797 801
744 747 752 757 763 768 773 778 782 787 791 795 798 801 803 795 800 803 805 808 811 813 814 818 819 820 822 824 821 817 819 807 804 808 807 806 806 803 797 799 797 792 794 790 794
738 742 747 752 757 763 769 775 781 785 790 794 799 801 796 797 800 800 803 806 809 813 815 817 820 822 824 827 826 826 819 816 799 802 803 812 800 791 788 792 792 789 785 786 789
732 738 743 747 753 759 766 772 778 785 789 794 799 800 797 794 796 798 800 801 809 812 813 817 820 822 825 824 831 827 824 814 809 796 801 807 798 787 783 785 786 784 780 779 779
726 732 738 743 748 754 762 771 779 784 789 795 795 802 794 786 791 795 799 803 808 813 816 817 819 816 819 819 818 821 825 814 813 800 801 800 796 790 782 784 782 777 774 771 771
718 725 733 739 742 750 760 771 780 781 781 779 780 778 779 785 790 791 796 801 807 813 811 812 816 812 807 811 811 806 812 804 791 794 812 800 792 785 779 778 776 774 773 768 765
712 719 726 733 739 744 751 751 751 759 775 778 780 782 783 784 788 788 796 801 803 805 805 813 812 794 802 805 816 811 813 815 804 796 806 799 788 777 771 769 767 765 763 762 760
705 712 720 728 735 742 742 741 760 760 770 779 778 781 782 786 781 783 789 791 794 797 801 802 784 795 798 803 811 809 817 816 813 798 793 795 785 779 760 761 758 753 752 752 750
699 706 714 723 737 735 738 741 749 757 765 772 778 774 780 780 783 779 785 788 795 792 793 800 793 799 795 796 800 804 798 809 814 817 811 788 790 761 743 738 739 742 744 743 742
692 700 708 717 721 727 734 742 745 756 740 762 768 766 773 775 775 782 784 787 783 786 792 785 786 790 800 792 795 792 795 807 813 815 815 801 809 754 752 743 736 731 735 735 734
686 694 703 712 719 723 735 743 749 740 720 744 752 759 766 770 772 779 782 783 783 786 784 783 779 781 776 783 790 796 810 811 812 818 811 793 786 751 744 730 730 723 723 724 724
681 689 698 705 706 720 728 737 742 718 728 742 742 747 751 763 771 773 779 784 783 794 785 779 779 781 781 786 798 802 811 810 808 810 792 764 777 750 724 721 719 717 716 716 716
674 683 690 697 707 716 721 721 718 715 717 724 731 746 748 756 763 767 774 780 777 772 775 784 785 774 772 778 777 797 803 793 787 786 766 755 765 735 717 712 713 713 714 713 711
668 678 686 692 701 706 711 691 691 705 709 713 731 747 748 750 753 761 763 765 765 767 772 770 771 757 765 766 778 780 796 788 797 784 796 772 739 723 715 712 714 712 711 710 708
662 672 678 685 696 701 705 681 694 692 696 709 715 727 736 743 745 751 754 749 759 762 762 760 768 758 756 767 770 772 769 788 789 777 774 754 738 720 708 712 708 709 707 705 704
661 669 671 683 692 694 687 692 709 692 694 701 702 711 720 733 733 745 743 743 752 758 763 766 768 764 758 769 767 771 770 767 770 768 762 754 727 701 705 699 692 693 697 699 700
643 663 668 679 684 686 684 696 691 687 688 697 701 703 713 724 735 739 740 742 745 749 759 762 770 770 765 758 755 755 760 765 770 769 764 749 724 701 700 701 701 698 698 698 701
644 662 667 674 670 675 690 691 681 684 686 699 701 701 709 723 744 733 736 740 745 749 752 757 771 774 769 762 756 772 753 757 761 757 756 758 732 704 701 699 694 699 698 699 700
644 653 661 669 670 672 680 685 682 684 689 695 701 698 713 724 728 733 739 743 747 750 757 752 756 758 753 742 741 761 756 752 751 760 753 746 732 700 704 696 691 693 693 695 697
642 647 654 659 671 667 675 683 680 690 695 696 703 702 708 727 732 732 737 745 748 751 752 758 769 755 743 744 740 739 749 761 761 748 750 732 726 699 702 704 699 695 690 689 691
640 641 651 660 670 671 674 684 679 689 691 697 695 702 704 715 721 729 732 737 740 745 750 759 764 772 770 754 752 749 743 741 739 741 752 754 746 713 703 712 703 701 697 692 687
636 637 637 663 669 673 673 681 683 684 701 688 692 700 709 715 717 721 728 734 733 738 745 749 755 764 754 744 748 758 737 735 729 725 726 729 712 697 694 699 703 700 690 683 680